| time (UTC) | temp F | wind direction | speed MPH | gust MPH | rain 1hr in | rain 24hr in | rain mn in | humidity % | barometer mb |
| 20260906221149 | 76 | 110 | 0.0 | 0.0 | 0.00 | 0.16 | 0.16 | 84 | 1011.4 |
| 20260906220625 | 76 | 110 | 0.0 | 0.0 | 0.00 | 0.16 | 0.16 | 84 | 1011.4 |
| 20260906220125 | 76 | 110 | 0.0 | 0.0 | 0.01 | 0.16 | 0.16 | 85 | 1011.3 |
| 20260906215625 | 76 | 110 | 0.0 | 0.0 | 0.09 | 0.16 | 0.16 | 85 | 1011.3 |
| 20260906215125 | 76 | 110 | 0.0 | 0.0 | 0.15 | 0.16 | 0.16 | 84 | 1011.4 |
| 20260906214625 | 76 | 110 | 0.0 | 0.0 | 0.16 | 0.16 | 0.16 | 84 | 1011.2 |
| 20260906214125 | 76 | 110 | 0.0 | 0.0 | 0.16 | 0.16 | 0.16 | 84 | 1010.9 |
| 20260906213625 | 76 | 110 | 0.0 | 0.0 | 0.16 | 0.16 | 0.16 | 84 | 1010.7 |
| 20260906213130 | 76 | 110 | 0.0 | 0.0 | 0.16 | 0.16 | 0.16 | 84 | 1011.0 |
| 20260906212637 | 76 | 110 | 0.0 | 0.0 | 0.16 | 0.16 | 0.16 | 84 | 1010.8 |
| 20260906212125 | 76 | 110 | 0.0 | 0.0 | 0.16 | 0.16 | 0.16 | 83 | 1010.8 |
| 20260906211625 | 76 | 110 | 0.0 | 4.0 | 0.16 | 0.16 | 0.16 | 81 | 1010.6 |
| 20260906211125 | 76 | 110 | 0.0 | 4.0 | 0.16 | 0.16 | 0.16 | 80 | 1010.4 |
| 20260906210625 | 77 | 110 | 0.0 | 5.0 | 0.16 | 0.17 | 0.16 | 76 | 1010.7 |
| 20260906210125 | 78 | 110 | 2.0 | 23.0 | 0.15 | 0.16 | 0.15 | 72 | 1010.6 |
| 20260906205625 | 81 | 340 | 9.0 | 23.0 | 0.07 | 0.08 | 0.07 | 65 | 1010.9 |
| 20260906205125 | 88 | 1 | 0.0 | 3.0 | 0.01 | 0.05 | 0.01 | 56 | 1009.9 |
| 20260906204625 | 94 | 1 | 0.0 | 3.0 | 0.00 | 0.07 | 0.00 | 51 | 1010.0 |
| 20260906204125 | 95 | 1 | 0.0 | 0.0 | 0.00 | 0.07 | 0.00 | 47 | 1009.8 |
| 20260906203625 | 95 | 1 | 0.0 | 0.0 | 0.00 | 0.07 | 0.00 | 45 | 1009.6 |
| 20260906203125 | 95 | 1 | 0.0 | 0.0 | 0.00 | 0.07 | 0.00 | 46 | 1009.4 |
| 20260906202625 | 95 | 1 | 0.0 | 0.0 | 0.00 | 0.07 | 0.00 | 46 | 1009.6 |
| 20260906202125 | 96 | 1 | 0.0 | 0.0 | 0.00 | 0.07 | 0.00 | 46 | 1009.6 |
| 20260906201625 | 96 | 1 | 0.0 | 0.0 | 0.00 | 0.07 | 0.00 | 46 | 1009.7 |
| 20260906201125 | 96 | 1 | 0.0 | 0.0 | 0.00 | 0.07 | 0.00 | 47 | 1009.6 |
| 20260906200625 | 96 | 1 | 0.0 | 0.0 | 0.00 | 0.07 | 0.00 | 47 | 1009.7 |
| 20260906200126 | 96 | 1 | 0.0 | 1.0 | 0.00 | 0.07 | 0.00 | 47 | 1010.0 |
| 20260906195625 | 96 | 1 | 0.0 | 1.0 | 0.00 | 0.07 | 0.00 | 47 | 1010.2 |
| 20260906195125 | 96 | 1 | 0.0 | 0.0 | 0.00 | 0.07 | 0.00 | 47 | 1010.2 |
| 20260906194625 | 96 | 1 | 0.0 | 0.0 | 0.00 | 0.07 | 0.00 | 46 | 1010.1 |
| 20260906194125 | 96 | 1 | 0.0 | 2.0 | 0.00 | 0.07 | 0.00 | 47 | 1010.2 |
| 20260906193625 | 96 | 1 | 0.0 | 2.0 | 0.00 | 0.07 | 0.00 | 46 | 1010.3 |
| 20260906193125 | 96 | 1 | 0.0 | 1.0 | 0.00 | 0.07 | 0.00 | 48 | 1010.4 |
| 20260906192625 | 96 | 1 | 0.0 | 1.0 | 0.00 | 0.07 | 0.00 | 50 | 1010.3 |
| 20260906192129 | 96 | 1 | 0.0 | 0.0 | 0.00 | 0.07 | 0.00 | 50 | 1010.4 |
| 20260906191637 | 96 | 1 | 0.0 | 0.0 | 0.00 | 0.07 | 0.00 | 51 | 1010.5 |
| 20260906191125 | 96 | 1 | 0.0 | 0.0 | 0.00 | 0.07 | 0.00 | 52 | 1010.6 |
| 20260906190625 | 96 | 1 | 0.0 | 0.0 | 0.00 | 0.07 | 0.00 | 50 | 1010.8 |
| 20260906190125 | 95 | 1 | 0.0 | 0.0 | 0.00 | 0.07 | 0.00 | 49 | 1010.9 |
| 20260906185625 | 95 | 1 | 0.0 | 0.0 | 0.00 | 0.07 | 0.00 | 51 | 1011.0 |
| 20260906185125 | 95 | 1 | 0.0 | 0.0 | 0.00 | 0.07 | 0.00 | 48 | 1011.1 |
| 20260906184625 | 95 | 1 | 0.0 | 0.0 | 0.00 | 0.07 | 0.00 | 50 | 1011.2 |
| 20260906184130 | 95 | 1 | 0.0 | 0.0 | 0.00 | 0.07 | 0.00 | 52 | 1011.3 |
| 20260906183637 | 95 | 1 | 0.0 | 0.0 | 0.00 | 0.07 | 0.00 | 49 | 1011.4 |
| 20260906183125 | 96 | 1 | 0.0 | 0.0 | 0.00 | 0.07 | 0.00 | 51 | 1011.5 |
| 20260906182625 | 96 | 1 | 0.0 | 0.0 | 0.00 | 0.07 | 0.00 | 52 | 1011.3 |
| 20260906182125 | 97 | 1 | 0.0 | 0.0 | 0.00 | 0.07 | 0.00 | 51 | 1011.4 |
| 20260906181625 | 97 | 1 | 0.0 | 0.0 | 0.00 | 0.07 | 0.00 | 48 | 1011.4 |
| 20260906181125 | 97 | 1 | 0.0 | 0.0 | 0.00 | 0.07 | 0.00 | 50 | 1011.5 |
| 20260906180625 | 97 | 1 | 0.0 | 0.0 | 0.00 | 0.07 | 0.00 | 47 | 1011.5 |
| 20260906180125 | 97 | 1 | 0.0 | 0.0 | 0.00 | 0.07 | 0.00 | 48 | 1011.5 |
| 20260906175625 | 97 | 1 | 0.0 | 0.0 | 0.00 | 0.07 | 0.00 | 48 | 1011.6 |
| 20260906175125 | 96 | 1 | 0.0 | 0.0 | 0.00 | 0.07 | 0.00 | 49 | 1011.6 |
| 20260906174630 | 97 | 1 | 0.0 | 0.0 | 0.00 | 0.07 | 0.00 | 50 | 1011.7 |
| 20260906174137 | 96 | 1 | 0.0 | 0.0 | 0.00 | 0.07 | 0.00 | 50 | 1011.8 |
| 20260906173625 | 95 | 1 | 0.0 | 0.0 | 0.00 | 0.07 | 0.00 | 51 | 1011.9 |
| 20260906173125 | 95 | 1 | 0.0 | 0.0 | 0.00 | 0.07 | 0.00 | 50 | 1011.9 |
| 20260906172625 | 95 | 1 | 0.0 | 0.0 | 0.00 | 0.07 | 0.00 | 50 | 1012.0 |
| 20260906172125 | 96 | 1 | 0.0 | 0.0 | 0.00 | 0.07 | 0.00 | 50 | 1012.0 |
| 20260906171625 | 96 | 1 | 0.0 | 0.0 | 0.00 | 0.07 | 0.00 | 52 | 1012.0 |
| 20260906171125 | 95 | 1 | 0.0 | 0.0 | 0.00 | 0.07 | 0.00 | 54 | 1012.0 |
| 20260906170625 | 95 | 1 | 0.0 | 0.0 | 0.00 | 0.07 | 0.00 | 51 | 1012.1 |
| 20260906170125 | 95 | 1 | 0.0 | 0.0 | 0.00 | 0.07 | 0.00 | 53 | 1012.2 |
| 20260906165625 | 95 | 1 | 0.0 | 0.0 | 0.00 | 0.07 | 0.00 | 53 | 1012.4 |
| 20260906165125 | 95 | 1 | 0.0 | 0.0 | 0.00 | 0.07 | 0.00 | 56 | 1012.5 |
| 20260906164625 | 94 | 1 | 0.0 | 0.0 | 0.00 | 0.07 | 0.00 | 57 | 1012.5 |
| 20260906164125 | 94 | 1 | 0.0 | 0.0 | 0.00 | 0.07 | 0.00 | 57 | 1012.6 |
| 20260906163625 | 93 | 1 | 0.0 | 0.0 | 0.00 | 0.07 | 0.00 | 59 | 1012.6 |
| 20260906163125 | 92 | 1 | 0.0 | 0.0 | 0.00 | 0.07 | 0.00 | 61 | 1012.8 |
| 20260906162625 | 92 | 1 | 0.0 | 0.0 | 0.00 | 0.07 | 0.00 | 63 | 1012.8 |
| 20260906162125 | 91 | 1 | 0.0 | 0.0 | 0.00 | 0.07 | 0.00 | 60 | 1012.8 |
| 20260906161629 | 91 | 1 | 0.0 | 0.0 | 0.00 | 0.07 | 0.00 | 65 | 1012.8 |
| 20260906161134 | 90 | 1 | 0.0 | 0.0 | 0.00 | 0.07 | 0.00 | 66 | 1012.8 |
| 20260906160641 | 89 | 1 | 0.0 | 0.0 | 0.00 | 0.07 | 0.00 | 66 | 1012.9 |
| 20260906160137 | 88 | 1 | 0.0 | 0.0 | 0.00 | 0.07 | 0.00 | 67 | 1013.0 |
| 20260906155625 | 87 | 1 | 0.0 | 0.0 | 0.00 | 0.07 | 0.00 | 69 | 1013.0 |
| 20260906155129 | 87 | 1 | 0.0 | 0.0 | 0.00 | 0.07 | 0.00 | 67 | 1013.0 |
| 20260906154637 | 86 | 1 | 0.0 | 0.0 | 0.00 | 0.07 | 0.00 | 68 | 1013.0 |
| 20260906154125 | 85 | 1 | 0.0 | 0.0 | 0.00 | 0.07 | 0.00 | 76 | 1013.0 |
| 20260906153625 | 85 | 1 | 0.0 | 0.0 | 0.00 | 0.07 | 0.00 | 75 | 1013.0 |
| 20260906153125 | 84 | 1 | 0.0 | 0.0 | 0.00 | 0.07 | 0.00 | 76 | 1013.1 |
| 20260906152625 | 84 | 1 | 0.0 | 0.0 | 0.00 | 0.07 | 0.00 | 74 | 1013.1 |
| 20260906152125 | 83 | 1 | 0.0 | 0.0 | 0.00 | 0.07 | 0.00 | 75 | 1013.1 |
| 20260906151625 | 83 | 1 | 0.0 | 0.0 | 0.00 | 0.07 | 0.00 | 77 | 1013.2 |
| 20260906151125 | 82 | 1 | 0.0 | 0.0 | 0.00 | 0.07 | 0.00 | 76 | 1013.2 |
| 20260906150627 | 82 | 1 | 0.0 | 0.0 | 0.00 | 0.07 | 0.00 | 78 | 1013.2 |
| 20260906150127 | 81 | 1 | 0.0 | 0.0 | 0.00 | 0.07 | 0.00 | 78 | 1013.3 |
| 20260906145634 | 80 | 1 | 0.0 | 0.0 | 0.00 | 0.07 | 0.00 | 81 | 1013.3 |
| 20260906145142 | 79 | 1 | 0.0 | 0.0 | 0.00 | 0.07 | 0.00 | 83 | 1013.4 |
| 20260906144637 | 79 | 1 | 0.0 | 0.0 | 0.00 | 0.07 | 0.00 | 83 | 1013.5 |
| 20260906144125 | 78 | 1 | 0.0 | 0.0 | 0.00 | 0.07 | 0.00 | 84 | 1013.5 |
| 20260906143625 | 78 | 1 | 0.0 | 0.0 | 0.00 | 0.07 | 0.00 | 85 | 1013.4 |
| 20260906143125 | 78 | 1 | 0.0 | 0.0 | 0.00 | 0.07 | 0.00 | 86 | 1013.4 |
| 20260906142625 | 77 | 1 | 0.0 | 0.0 | 0.00 | 0.07 | 0.00 | 86 | 1013.4 |
| 20260906142125 | 77 | 1 | 0.0 | 0.0 | 0.00 | 0.07 | 0.00 | 87 | 1013.4 |
| 20260906141625 | 76 | 1 | 0.0 | 0.0 | 0.00 | 0.07 | 0.00 | 87 | 1013.4 |
| 20260906141125 | 76 | 1 | 0.0 | 0.0 | 0.00 | 0.07 | 0.00 | 88 | 1013.5 |
| 20260906140625 | 76 | 1 | 0.0 | 0.0 | 0.00 | 0.07 | 0.00 | 88 | 1013.4 |
| 20260906140125 | 75 | 1 | 0.0 | 0.0 | 0.00 | 0.07 | 0.00 | 88 | 1013.4 |
| 20260906135625 | 75 | 1 | 0.0 | 0.0 | 0.00 | 0.07 | 0.00 | 88 | 1013.5 |
| 20260906135125 | 75 | 1 | 0.0 | 0.0 | 0.00 | 0.07 | 0.00 | 88 | 1013.5 |
| 20260906134625 | 75 | 1 | 0.0 | 0.0 | 0.00 | 0.07 | 0.00 | 88 | 1013.4 |
| 20260906134125 | 75 | 1 | 0.0 | 0.0 | 0.00 | 0.07 | 0.00 | 88 | 1013.4 |
| 20260906133629 | 74 | 1 | 0.0 | 0.0 | 0.00 | 0.07 | 0.00 | 88 | 1013.3 |
| 20260906133137 | 74 | 1 | 0.0 | 0.0 | 0.00 | 0.07 | 0.00 | 88 | 1013.3 |
| 20260906132627 | 74 | 1 | 0.0 | 0.0 | 0.00 | 0.07 | 0.00 | 88 | 1013.2 |
| 20260906132134 | 74 | 1 | 0.0 | 0.0 | 0.00 | 0.07 | 0.00 | 88 | 1013.2 |
| 20260906131642 | 73 | 1 | 0.0 | 0.0 | 0.00 | 0.07 | 0.00 | 88 | 1013.1 |
| 20260906131149 | 73 | 1 | 0.0 | 0.0 | 0.00 | 0.07 | 0.00 | 88 | 1013.0 |
| 20260906130146 | 73 | 1 | 0.0 | 0.0 | 0.00 | 0.07 | 0.00 | 88 | 1013.1 |
| 20260906125646 | 72 | 1 | 0.0 | 0.0 | 0.00 | 0.07 | 0.00 | 88 | 1013.0 |
| 20260906125146 | 72 | 1 | 0.0 | 0.0 | 0.00 | 0.07 | 0.00 | 88 | 1013.0 |
| 20260906124646 | 72 | 1 | 0.0 | 0.0 | 0.00 | 0.07 | 0.00 | 88 | 1013.0 |
| 20260906124151 | 72 | 1 | 0.0 | 0.0 | 0.00 | 0.07 | 0.00 | 88 | 1013.0 |
| 20260906123658 | 72 | 1 | 0.0 | 0.0 | 0.00 | 0.07 | 0.00 | 88 | 1013.0 |
| 20260906123146 | 72 | 1 | 0.0 | 0.0 | 0.00 | 0.07 | 0.00 | 88 | 1013.1 |
| 20260906122357 | 71 | 1 | 0.0 | 0.0 | 0.00 | 0.07 | 0.00 | 88 | 1013.1 |
| 20260906121845 | 71 | 1 | 0.0 | 0.0 | 0.00 | 0.07 | 0.00 | 87 | 1013.0 |
| 20260906121345 | 71 | 1 | 0.0 | 0.0 | 0.00 | 0.07 | 0.00 | 87 | 1012.9 |
| 20260906120845 | 71 | 1 | 0.0 | 0.0 | 0.00 | 0.07 | 0.00 | 87 | 1012.9 |
| 20260906120345 | 71 | 1 | 0.0 | 0.0 | 0.00 | 0.07 | 0.00 | 87 | 1012.9 |
| 20260906115850 | 71 | 1 | 0.0 | 0.0 | 0.00 | 0.07 | 0.00 | 87 | 1012.9 |
| 20260906115358 | 71 | 1 | 0.0 | 0.0 | 0.00 | 0.07 | 0.00 | 87 | 1012.8 |
| 20260906114845 | 71 | 1 | 0.0 | 0.0 | 0.00 | 0.07 | 0.00 | 87 | 1012.9 |
| 20260906114347 | 71 | 1 | 0.0 | 0.0 | 0.00 | 0.07 | 0.00 | 87 | 1012.8 |
| 20260906113845 | 71 | 1 | 0.0 | 0.0 | 0.00 | 0.07 | 0.00 | 87 | 1012.7 |
| 20260906113347 | 71 | 1 | 0.0 | 0.0 | 0.00 | 0.07 | 0.00 | 88 | 1012.6 |
| 20260906112855 | 71 | 1 | 0.0 | 0.0 | 0.00 | 0.07 | 0.00 | 88 | 1012.5 |
| 20260906112402 | 71 | 1 | 0.0 | 0.0 | 0.00 | 0.07 | 0.00 | 88 | 1012.4 |
| 20260906111910 | 71 | 1 | 0.0 | 0.0 | 0.00 | 0.07 | 0.00 | 88 | 1012.4 |
| 20260906111345 | 71 | 1 | 0.0 | 0.0 | 0.00 | 0.07 | 0.00 | 87 | 1012.4 |
| 20260906110850 | 71 | 1 | 0.0 | 0.0 | 0.00 | 0.07 | 0.00 | 87 | 1012.3 |
| 20260906110357 | 71 | 1 | 0.0 | 0.0 | 0.00 | 0.07 | 0.00 | 87 | 1012.2 |
| 20260906105845 | 71 | 1 | 0.0 | 0.0 | 0.00 | 0.07 | 0.00 | 87 | 1012.2 |
| 20260906105345 | 71 | 1 | 0.0 | 0.0 | 0.00 | 0.07 | 0.00 | 87 | 1012.1 |
| 20260906104846 | 71 | 1 | 0.0 | 0.0 | 0.00 | 0.07 | 0.00 | 87 | 1012.1 |
| 20260906104345 | 71 | 1 | 0.0 | 0.0 | 0.00 | 0.07 | 0.00 | 87 | 1012.1 |
| 20260906103845 | 71 | 1 | 0.0 | 0.0 | 0.00 | 0.07 | 0.00 | 87 | 1012.1 |
| 20260906103345 | 71 | 1 | 0.0 | 0.0 | 0.00 | 0.07 | 0.00 | 87 | 1012.1 |
| 20260906102850 | 71 | 1 | 0.0 | 0.0 | 0.00 | 0.07 | 0.00 | 87 | 1012.1 |
| 20260906102357 | 71 | 1 | 0.0 | 0.0 | 0.00 | 0.07 | 0.00 | 87 | 1012.2 |
| 20260906101845 | 71 | 1 | 0.0 | 0.0 | 0.00 | 0.07 | 0.00 | 87 | 1012.1 |
| 20260906101345 | 71 | 1 | 0.0 | 0.0 | 0.00 | 0.07 | 0.00 | 87 | 1012.1 |
| 20260906100845 | 71 | 1 | 0.0 | 0.0 | 0.00 | 0.07 | 0.00 | 87 | 1012.2 |
| 20260906100345 | 71 | 1 | 0.0 | 0.0 | 0.00 | 0.07 | 0.00 | 87 | 1012.1 |
| 20260906095845 | 71 | 1 | 0.0 | 0.0 | 0.00 | 0.07 | 0.00 | 87 | 1012.1 |
| 20260906095345 | 71 | 1 | 0.0 | 0.0 | 0.00 | 0.07 | 0.00 | 87 | 1012.2 |
| 20260906094845 | 71 | 1 | 0.0 | 0.0 | 0.00 | 0.07 | 0.00 | 87 | 1012.3 |
| 20260906094345 | 71 | 1 | 0.0 | 0.0 | 0.00 | 0.07 | 0.00 | 87 | 1012.2 |
| 20260906093850 | 71 | 1 | 0.0 | 0.0 | 0.00 | 0.07 | 0.00 | 87 | 1012.2 |
| 20260906093357 | 71 | 1 | 0.0 | 0.0 | 0.00 | 0.07 | 0.00 | 87 | 1012.3 |
| 20260906092845 | 71 | 1 | 0.0 | 0.0 | 0.00 | 0.07 | 0.00 | 87 | 1012.2 |
| 20260906092345 | 71 | 1 | 0.0 | 0.0 | 0.00 | 0.07 | 0.00 | 87 | 1012.2 |
| 20260906091845 | 71 | 1 | 0.0 | 0.0 | 0.00 | 0.07 | 0.00 | 87 | 1012.2 |
| 20260906091345 | 71 | 1 | 0.0 | 0.0 | 0.00 | 0.07 | 0.00 | 87 | 1012.2 |
| 20260906090845 | 71 | 1 | 0.0 | 0.0 | 0.00 | 0.07 | 0.00 | 87 | 1012.1 |
| 20260906090345 | 71 | 1 | 0.0 | 0.0 | 0.00 | 0.07 | 0.00 | 87 | 1012.1 |
| 20260906085845 | 71 | 1 | 0.0 | 0.0 | 0.00 | 0.07 | 0.00 | 87 | 1012.2 |
| 20260906085345 | 71 | 1 | 0.0 | 0.0 | 0.00 | 0.07 | 0.00 | 87 | 1012.1 |
| 20260906084845 | 71 | 1 | 0.0 | 0.0 | 0.00 | 0.07 | 0.00 | 87 | 1012.1 |
| 20260906084349 | 71 | 1 | 0.0 | 0.0 | 0.00 | 0.07 | 0.00 | 87 | 1012.1 |
| 20260906083857 | 71 | 1 | 0.0 | 0.0 | 0.00 | 0.07 | 0.00 | 87 | 1012.2 |
| 20260906083350 | 71 | 1 | 0.0 | 0.0 | 0.00 | 0.07 | 0.00 | 87 | 1012.1 |
| 20260906082857 | 71 | 1 | 0.0 | 0.0 | 0.00 | 0.07 | 0.00 | 87 | 1012.0 |
| 20260906082345 | 71 | 1 | 0.0 | 0.0 | 0.00 | 0.07 | 0.00 | 87 | 1012.1 |
| 20260906081845 | 71 | 1 | 0.0 | 0.0 | 0.00 | 0.07 | 0.00 | 87 | 1012.1 |
| 20260906081345 | 71 | 1 | 0.0 | 0.0 | 0.00 | 0.07 | 0.00 | 87 | 1012.1 |
| 20260906080845 | 71 | 1 | 0.0 | 0.0 | 0.00 | 0.07 | 0.00 | 87 | 1012.0 |
| 20260906080345 | 71 | 1 | 0.0 | 0.0 | 0.00 | 0.07 | 0.00 | 87 | 1012.0 |
| 20260906075845 | 71 | 1 | 0.0 | 0.0 | 0.00 | 0.07 | 0.00 | 87 | 1011.8 |
| 20260906075345 | 71 | 1 | 0.0 | 0.0 | 0.00 | 0.07 | 0.00 | 87 | 1011.8 |
| 20260906074845 | 71 | 1 | 0.0 | 0.0 | 0.00 | 0.07 | 0.00 | 87 | 1011.8 |
| 20260906074345 | 71 | 1 | 0.0 | 0.0 | 0.00 | 0.07 | 0.00 | 87 | 1011.8 |
| 20260906073845 | 71 | 1 | 0.0 | 0.0 | 0.00 | 0.07 | 0.00 | 87 | 1011.9 |
| 20260906073345 | 71 | 1 | 0.0 | 0.0 | 0.00 | 0.07 | 0.00 | 87 | 1011.9 |
| 20260906072845 | 71 | 1 | 0.0 | 0.0 | 0.00 | 0.07 | 0.00 | 87 | 1012.0 |
| 20260906072222 | 71 | 1 | 0.0 | 0.0 | 0.00 | 0.07 | 0.00 | 87 | 1012.0 |
| 20260906071722 | 71 | 1 | 0.0 | 0.0 | 0.00 | 0.07 | 0.00 | 87 | 1012.0 |
| 20260906071222 | 72 | 1 | 0.0 | 0.0 | 0.00 | 0.07 | 0.00 | 87 | 1012.0 |
| 20260906070722 | 72 | 1 | 0.0 | 0.0 | 0.00 | 0.07 | 0.00 | 87 | 1012.1 |
| 20260906070225 | 72 | 1 | 0.0 | 0.0 | 0.00 | 0.07 | 0.00 | 87 | 1012.2 |
| 20260906065722 | 72 | 1 | 0.0 | 0.0 | 0.00 | 0.07 | 0.00 | 87 | 1012.1 |
| 20260906065222 | 72 | 1 | 0.0 | 0.0 | 0.00 | 0.07 | 0.00 | 87 | 1012.0 |
| 20260906064724 | 72 | 1 | 0.0 | 0.0 | 0.00 | 0.07 | 0.00 | 87 | 1012.1 |
| 20260906064227 | 72 | 1 | 0.0 | 0.0 | 0.00 | 0.07 | 0.00 | 87 | 1012.2 |
| 20260906063734 | 72 | 1 | 0.0 | 0.0 | 0.00 | 0.07 | 0.00 | 87 | 1012.4 |
| 20260906063222 | 72 | 1 | 0.0 | 0.0 | 0.00 | 0.07 | 0.00 | 87 | 1012.6 |
| 20260906062722 | 72 | 1 | 0.0 | 0.0 | 0.00 | 0.07 | 0.00 | 87 | 1012.7 |
| 20260906062227 | 72 | 1 | 0.0 | 0.0 | 0.00 | 0.07 | 0.00 | 87 | 1012.8 |
| 20260906061734 | 72 | 1 | 0.0 | 0.0 | 0.00 | 0.07 | 0.00 | 87 | 1012.8 |
| 20260906061222 | 72 | 1 | 0.0 | 0.0 | 0.00 | 0.07 | 0.00 | 87 | 1012.9 |
| 20260906060729 | 72 | 1 | 0.0 | 0.0 | 0.00 | 0.07 | 0.00 | 87 | 1012.9 |
| 20260906060236 | 72 | 1 | 0.0 | 0.0 | 0.00 | 0.07 | 0.00 | 87 | 1012.9 |
| 20260906055731 | 72 | 1 | 0.0 | 0.0 | 0.00 | 0.07 | 0.00 | 87 | 1013.0 |
| 20260906055239 | 72 | 1 | 0.0 | 0.0 | 0.00 | 0.07 | 0.00 | 87 | 1013.0 |
| 20260906054734 | 72 | 1 | 0.0 | 0.0 | 0.00 | 0.07 | 0.00 | 87 | 1013.1 |
| 20260906054225 | 72 | 1 | 0.0 | 0.0 | 0.00 | 0.07 | 0.00 | 87 | 1013.0 |
| 20260906053722 | 72 | 1 | 0.0 | 0.0 | 0.00 | 0.07 | 0.00 | 87 | 1013.1 |
| 20260906053222 | 72 | 1 | 0.0 | 0.0 | 0.00 | 0.07 | 0.00 | 87 | 1013.1 |
| 20260906052722 | 72 | 1 | 0.0 | 0.0 | 0.00 | 0.07 | 0.00 | 87 | 1013.1 |
| 20260906052226 | 72 | 1 | 0.0 | 0.0 | 0.00 | 0.07 | 0.00 | 86 | 1013.2 |
| 20260906051734 | 72 | 1 | 0.0 | 0.0 | 0.00 | 0.07 | 0.00 | 86 | 1013.2 |
| 20260906051227 | 72 | 1 | 0.0 | 0.0 | 0.00 | 0.07 | 0.00 | 86 | 1013.2 |
| 20260906050734 | 72 | 1 | 0.0 | 0.0 | 0.00 | 0.07 | 0.00 | 86 | 1013.2 |
| 20260906050222 | 73 | 1 | 0.0 | 0.0 | 0.00 | 0.07 | 0.00 | 86 | 1013.2 |
| 20260906045557 | 73 | 1 | 0.0 | 0.0 | 0.00 | 0.07 | 0.00 | 86 | 1013.2 |
| 20260906045045 | 73 | 1 | 0.0 | 0.0 | 0.00 | 0.07 | 0.00 | 86 | 1013.1 |
| 20260906044550 | 73 | 1 | 0.0 | 0.0 | 0.00 | 0.07 | 0.00 | 86 | 1013.1 |
| 20260906044057 | 73 | 1 | 0.0 | 0.0 | 0.00 | 0.07 | 0.00 | 86 | 1013.2 |
| 20260906043545 | 73 | 1 | 0.0 | 0.0 | 0.00 | 0.07 | 0.00 | 86 | 1013.2 |
| 20260906043045 | 73 | 1 | 0.0 | 0.0 | 0.00 | 0.07 | 0.00 | 86 | 1013.1 |
| 20260906042318 | 73 | 1 | 0.0 | 0.0 | 0.00 | 0.07 | 0.00 | 86 | 1013.1 |
| 20260906041823 | 73 | 1 | 0.0 | 0.0 | 0.00 | 0.07 | 0.00 | 86 | 1013.2 |
| 20260906041331 | 73 | 1 | 0.0 | 0.0 | 0.00 | 0.07 | 0.00 | 86 | 1013.1 |
| 20260906040818 | 73 | 1 | 0.0 | 0.0 | 0.00 | 0.07 | 0.00 | 86 | 1013.1 |
| 20260906040323 | 73 | 1 | 0.0 | 0.0 | 0.00 | 0.07 | 0.00 | 86 | 1013.0 |
| 20260906035830 | 73 | 1 | 0.0 | 0.0 | 0.00 | 0.07 | 0.00 | 86 | 1013.0 |
| 20260906035318 | 74 | 1 | 0.0 | 0.0 | 0.00 | 0.07 | 0.00 | 86 | 1013.0 |
| 20260906034823 | 74 | 1 | 0.0 | 0.0 | 0.00 | 0.07 | 0.00 | 86 | 1013.1 |
| 20260906034330 | 74 | 1 | 0.0 | 0.0 | 0.00 | 0.07 | 0.00 | 86 | 1013.1 |
| 20260906033819 | 74 | 1 | 0.0 | 0.0 | 0.00 | 0.07 | 0.00 | 86 | 1013.1 |
| 20260906033323 | 74 | 1 | 0.0 | 0.0 | 0.00 | 0.07 | 0.00 | 86 | 1013.2 |
| 20260906032830 | 74 | 1 | 0.0 | 0.0 | 0.00 | 0.07 | 0.00 | 86 | 1013.1 |
| 20260906032318 | 74 | 1 | 0.0 | 0.0 | 0.00 | 0.07 | 0.00 | 86 | 1013.1 |
| 20260906031818 | 74 | 1 | 0.0 | 0.0 | 0.00 | 0.07 | 0.00 | 86 | 1013.2 |
| 20260906031318 | 74 | 1 | 0.0 | 0.0 | 0.00 | 0.07 | 0.00 | 86 | 1013.3 |
| 20260906030818 | 74 | 1 | 0.0 | 0.0 | 0.00 | 0.07 | 0.00 | 86 | 1013.3 |
| 20260906030318 | 74 | 1 | 0.0 | 0.0 | 0.00 | 0.07 | 0.00 | 86 | 1013.4 |
| 20260906025818 | 74 | 1 | 0.0 | 0.0 | 0.00 | 0.07 | 0.00 | 86 | 1013.4 |
| 20260906025318 | 74 | 1 | 0.0 | 0.0 | 0.00 | 0.07 | 0.00 | 86 | 1013.4 |
| 20260906024818 | 74 | 1 | 0.0 | 0.0 | 0.00 | 0.07 | 0.00 | 86 | 1013.5 |
| 20260906024318 | 74 | 1 | 0.0 | 0.0 | 0.00 | 0.07 | 0.00 | 86 | 1013.5 |
| 20260906023825 | 75 | 1 | 0.0 | 0.0 | 0.00 | 0.07 | 0.00 | 86 | 1013.5 |
| 20260906023332 | 75 | 1 | 0.0 | 0.0 | 0.00 | 0.07 | 0.00 | 86 | 1013.5 |
| 20260906022840 | 75 | 1 | 0.0 | 0.0 | 0.00 | 0.07 | 0.00 | 86 | 1013.5 |
| 20260906022335 | 75 | 1 | 0.0 | 0.0 | 0.00 | 0.07 | 0.00 | 86 | 1013.5 |
| 20260906021831 | 75 | 1 | 0.0 | 0.0 | 0.00 | 0.07 | 0.00 | 86 | 1013.4 |
| 20260906021319 | 75 | 1 | 0.0 | 0.0 | 0.00 | 0.07 | 0.00 | 86 | 1013.4 |
| 20260906020818 | 75 | 1 | 0.0 | 0.0 | 0.00 | 0.07 | 0.00 | 86 | 1013.5 |
| 20260906020318 | 75 | 1 | 0.0 | 0.0 | 0.00 | 0.07 | 0.00 | 86 | 1013.5 |
| 20260906015818 | 75 | 1 | 0.0 | 0.0 | 0.00 | 0.07 | 0.00 | 86 | 1013.4 |
| 20260906015318 | 75 | 1 | 0.0 | 0.0 | 0.00 | 0.07 | 0.00 | 86 | 1013.3 |
| 20260906014818 | 75 | 1 | 0.0 | 0.0 | 0.00 | 0.07 | 0.00 | 86 | 1013.1 |
| 20260906014323 | 75 | 1 | 0.0 | 0.0 | 0.00 | 0.07 | 0.00 | 86 | 1013.0 |
| 20260906013831 | 75 | 1 | 0.0 | 0.0 | 0.00 | 0.07 | 0.00 | 86 | 1012.9 |
| 20260906013318 | 75 | 1 | 0.0 | 0.0 | 0.00 | 0.07 | 0.00 | 86 | 1012.8 |
| 20260906012758 | 75 | 1 | 0.0 | 0.0 | 0.00 | 0.07 | 0.00 | 86 | 1012.8 |
| 20260906012245 | 75 | 1 | 0.0 | 0.0 | 0.00 | 0.07 | 0.00 | 85 | 1012.9 |
| 20260906011745 | 75 | 1 | 0.0 | 0.0 | 0.00 | 0.07 | 0.00 | 85 | 1013.0 |
| 20260906011250 | 75 | 1 | 0.0 | 0.0 | 0.00 | 0.07 | 0.00 | 85 | 1013.0 |
| 20260906010758 | 75 | 1 | 0.0 | 0.0 | 0.00 | 0.07 | 0.00 | 85 | 1012.9 |
| 20260906010245 | 75 | 1 | 0.0 | 0.0 | 0.00 | 0.07 | 0.00 | 85 | 1012.9 |
| 20260906005746 | 76 | 1 | 0.0 | 0.0 | 0.00 | 0.07 | 0.00 | 85 | 1012.9 |
| 20260906005246 | 76 | 1 | 0.0 | 0.0 | 0.00 | 0.07 | 0.00 | 85 | 1012.9 |
| 20260906004746 | 76 | 1 | 0.0 | 0.0 | 0.00 | 0.07 | 0.00 | 85 | 1012.9 |
| 20260906004245 | 76 | 1 | 0.0 | 0.0 | 0.00 | 0.07 | 0.00 | 85 | 1013.0 |
| 20260906003746 | 76 | 1 | 0.0 | 0.0 | 0.00 | 0.07 | 0.00 | 85 | 1012.9 |
| 20260906003246 | 76 | 1 | 0.0 | 0.0 | 0.00 | 0.07 | 0.00 | 85 | 1012.8 |
| 20260906002746 | 76 | 1 | 0.0 | 0.0 | 0.00 | 0.07 | 0.00 | 85 | 1012.7 |
| 20260906002245 | 76 | 1 | 0.0 | 0.0 | 0.00 | 0.07 | 0.00 | 85 | 1012.6 |
| 20260906001746 | 76 | 1 | 0.0 | 0.0 | 0.00 | 0.07 | 0.00 | 85 | 1012.5 |
| 20260906001246 | 76 | 1 | 0.0 | 0.0 | 0.00 | 0.07 | 0.00 | 85 | 1012.6 |
| 20260906000750 | 76 | 1 | 0.0 | 0.0 | 0.00 | 0.07 | 0.00 | 85 | 1012.4 |
| 20260906000258 | 76 | 1 | 0.0 | 0.0 | 0.00 | 0.07 | 0.00 | 85 | 1012.4 |
| 20260905235745 | 76 | 1 | 0.0 | 0.0 | 0.00 | 0.07 | 0.07 | 85 | 1012.3 |
| 20260905235247 | 76 | 1 | 0.0 | 0.0 | 0.00 | 0.07 | 0.07 | 85 | 1012.3 |
| 20260905234755 | 76 | 1 | 0.0 | 0.0 | 0.00 | 0.07 | 0.07 | 85 | 1012.2 |
| 20260905234302 | 76 | 1 | 0.0 | 0.0 | 0.00 | 0.07 | 0.07 | 85 | 1012.1 |
| 20260905233758 | 76 | 1 | 0.0 | 0.0 | 0.00 | 0.07 | 0.07 | 85 | 1012.1 |
| 20260905233246 | 76 | 1 | 0.0 | 0.0 | 0.00 | 0.07 | 0.07 | 85 | 1012.0 |
| 20260905232749 | 76 | 1 | 0.0 | 0.0 | 0.00 | 0.07 | 0.07 | 85 | 1012.0 |
| 20260905232257 | 76 | 1 | 0.0 | 0.0 | 0.00 | 0.07 | 0.07 | 85 | 1012.0 |
| 20260905231804 | 76 | 1 | 0.0 | 0.0 | 0.00 | 0.07 | 0.07 | 85 | 1012.0 |
| 20260905231312 | 76 | 1 | 0.0 | 0.0 | 0.00 | 0.07 | 0.07 | 85 | 1012.1 |
| 20260905230746 | 76 | 1 | 0.0 | 0.0 | 0.00 | 0.07 | 0.07 | 84 | 1012.0 |
| 20260905230245 | 76 | 1 | 0.0 | 0.0 | 0.00 | 0.07 | 0.07 | 84 | 1011.9 |
| 20260905225746 | 77 | 1 | 0.0 | 0.0 | 0.00 | 0.07 | 0.07 | 84 | 1012.0 |
| 20260905225246 | 77 | 1 | 0.0 | 0.0 | 0.00 | 0.07 | 0.07 | 84 | 1012.1 |
| 20260905224745 | 77 | 1 | 0.0 | 0.0 | 0.00 | 0.07 | 0.07 | 84 | 1012.1 |
| 20260905224245 | 77 | 1 | 0.0 | 0.0 | 0.00 | 0.07 | 0.07 | 84 | 1012.2 |
| 20260905223745 | 77 | 1 | 0.0 | 0.0 | 0.00 | 0.07 | 0.07 | 84 | 1012.1 |
| 20260905223245 | 77 | 1 | 0.0 | 0.0 | 0.00 | 0.07 | 0.07 | 84 | 1012.0 |
| 20260905222746 | 77 | 1 | 0.0 | 0.0 | 0.00 | 0.07 | 0.07 | 84 | 1012.0 |
| 20260905222245 | 77 | 1 | 0.0 | 0.0 | 0.00 | 0.07 | 0.07 | 84 | 1011.8 |
| 20260905221745 | 77 | 1 | 0.0 | 0.0 | 0.00 | 0.07 | 0.07 | 83 | 1011.7 |